Youngstown, OH

1:33 PM EST on November 22, 2017 (GMT -0500)
Youngstown-Warren Regional

Weather History for KYNG - August, 2014

Change the Weather History Date:

Thursday, August 28, 2014

  Actual Average Record
Temperature  
Mean Temperature 61 °F 68 °F  
Max Temperature 72 °F 79 °F 96 °F (1948)
Min Temperature 50 °F 57 °F 41 °F (1982)
Degree Days  
Heating Degree Days 4 1  
Month to date heating degree days 21 23  
Since 1 June heating degree days 77 105  
Since 1 July heating degree days 49 36  
Cooling Degree Days 0 4  
Month to date cooling degree days 122 142  
Year to date cooling degree days 460 476  
Since 1 June cooling degree days 405 437  
Growing Degree Days 12 (Base 50)    
Moisture  
Dew Point 52 °F    
Average Humidity 70    
Maximum Humidity 96    
Minimum Humidity 44    
Precipitation  
Precipitation 0.00 in 0.10 in 1.64 in (1988)
Month to date precipitation 5.82 2.91  
Year to date precipitation 29.12 25.89  
Snow  
Snow 0.00 in 0.00 in - ()
Month to date snowfall 0.0 0.0  
Since 1 June snowfall 0.0 0.0  
Since 1 July snowfall 0.0 0.0  
Snow Depth 0.00 in    
Sea Level Pressure  
Sea Level Pressure 30.12 in    
Wind  
Wind Speed 7 mph (North)    
Max Wind Speed 17 mph    
Max Gust Speed 23 mph    
Visibility 10 miles    
Events      
T = Trace of Precipitation, MM = Missing Value Source: NWS Daily Summary

Daily Weather History Graph

Daily Weather History Graph

Search for Another Location

Airport or City:

Trip Planner

Search our weather history database for the weather conditions in past years. The results will help you decide how hot, cold, wet, or windy it might be!

Date:

Astronomy

Aug. 28, 2014 Rise Set
Actual Time 6:45 AM EDT 8:01 PM EDT
Civil Twilight 6:16 AM EDT 8:30 PM EDT
Nautical Twilight 5:42 AM EDT 9:04 PM EDT
Astronomical Twilight 5:05 AM EDT 9:40 PM EDT
Moon 9:38 AM EDT (8/28) 9:22 PM EDT (8/28)
Length of Visible Light 14h 14m
Length of Day
13h 16m
Waxing Crescent, 8% of the Moon is Illuminated
Aug 28
Waxing Crescent
Sep 2
First Quarter
Sep 8
Full
Sep 15
Last Quarter
Sep 24
New

Hourly Weather History & Observations

Time (EDT) Temp. Dew Point Humidity Pressure Visibility Wind Dir Wind Speed Gust Speed Precip Events Conditions
12:51 AM 61.0 °F 55.0 °F 81% 30.08 in 10.0 mi North 6.9 mph - N/A   Mostly Cloudy
1:51 AM 60.1 °F 54.0 °F 80% 30.07 in 10.0 mi North 5.8 mph - N/A   Mostly Cloudy
2:51 AM 59.0 °F 55.0 °F 87% 30.07 in 10.0 mi North 5.8 mph - N/A   Mostly Cloudy
3:51 AM 57.9 °F 54.0 °F 87% 30.07 in 10.0 mi NNE 4.6 mph - N/A   Mostly Cloudy
4:51 AM 57.0 °F 53.1 °F 87% 30.08 in 10.0 mi North 4.6 mph - N/A   Mostly Cloudy
5:51 AM 54.0 °F 51.1 °F 90% 30.10 in 10.0 mi Calm Calm - N/A   Scattered Clouds
6:51 AM 53.1 °F 52.0 °F 96% 30.11 in 10.0 mi Calm Calm - N/A   Clear
7:51 AM 57.0 °F 52.0 °F 83% 30.13 in 10.0 mi NNW 5.8 mph - N/A   Scattered Clouds
8:51 AM 61.0 °F 52.0 °F 72% 30.14 in 10.0 mi NNW 9.2 mph - N/A   Scattered Clouds
9:09 AM 62.6 °F 51.8 °F 68% 30.14 in 10.0 mi NNW 9.2 mph - N/A   Mostly Cloudy
9:51 AM 63.0 °F 53.1 °F 70% 30.14 in 10.0 mi NNW 11.5 mph - N/A   Mostly Cloudy
10:08 AM 64.4 °F 53.6 °F 68% 30.15 in 10.0 mi NNW 11.5 mph - N/A   Mostly Cloudy
10:51 AM 66.0 °F 53.1 °F 63% 30.15 in 10.0 mi North 11.5 mph - N/A   Mostly Cloudy
11:51 AM 68.0 °F 52.0 °F 56% 30.14 in 10.0 mi North 15.0 mph 23.0 mph N/A   Mostly Cloudy
12:13 PM 68.0 °F 53.6 °F 60% 30.15 in 10.0 mi NNW 12.7 mph 19.6 mph N/A   Mostly Cloudy
12:51 PM 68.0 °F 51.1 °F 55% 30.14 in 10.0 mi NNW 12.7 mph - N/A   Mostly Cloudy
1:51 PM 70.0 °F 48.9 °F 47% 30.13 in 10.0 mi NNW 8.1 mph 17.3 mph N/A   Scattered Clouds
2:51 PM 70.0 °F 48.9 °F 47% 30.12 in 10.0 mi NNW 9.2 mph - N/A   Scattered Clouds
3:51 PM 71.1 °F 48.9 °F 45% 30.11 in 10.0 mi North 10.4 mph - N/A   Scattered Clouds
4:51 PM 71.1 °F 50.0 °F 47% 30.10 in 10.0 mi NNW 8.1 mph - N/A   Scattered Clouds
5:51 PM 70.0 °F 51.1 °F 51% 30.11 in 10.0 mi North 4.6 mph - N/A   Scattered Clouds
6:51 PM 68.0 °F 51.1 °F 55% 30.11 in 10.0 mi North 9.2 mph - N/A   Scattered Clouds
7:51 PM 63.0 °F 51.1 °F 65% 30.12 in 10.0 mi North 4.6 mph - N/A   Mostly Cloudy
8:51 PM 60.1 °F 50.0 °F 69% 30.13 in 10.0 mi NNE 6.9 mph - N/A   Mostly Cloudy
9:51 PM 57.9 °F 51.1 °F 78% 30.15 in 10.0 mi NE 5.8 mph - N/A   Scattered Clouds
10:51 PM 55.4 °F 51.8 °F 88% 30.16 in 10.0 mi NNE 3.5 mph - N/A   Partly Cloudy
11:51 PM 52.0 °F 50.0 °F 93% 30.17 in 10.0 mi Calm Calm - N/A   Partly Cloudy